Location: Eppenbrunn
(49.1158°N, 7.5601°E)
Time: 17:51:06
(UTC+00:00)

CZ-4C R/B - Pass Details

Date: 09 April 2020
Orbit: 637 x 1364 km, 63.4° (Epoch: 25 May)

Event Time Altitude Azimuth Distance (km) Brightness Sun altitude
Rises 22:37:59 0° 315° (NW) 3,860 6.5 -31.7°
Reaches altitude 10° 22:40:37 10° 308° (NW) 3,002 5.6 -31.8°
Enters shadow 22:46:58 42° 249° (WSW) 1,703 3.6 -32.0°
